Tracking 19575 objects as of 21-Feb-2019
HD Live streaming from Space Station
objects crossing your sky now

ERS 15

Track ERS 15 now!
10-day predictions
ERS 15 is classified as:


NORAD ID: 2412
Int'l Code: 1966-077C
Perigee: 3,685.8 km
Apogee: 3,713.1 km
Inclination: 90.2 °
Period: 167.6 minutes
Semi major axis: 10070 km
RCS: 0.3509 m2 (medium)
Launch date: August 19, 1966
Source: United States (US)
Launch site: AIR FORCE WESTERN TEST RANGE (AFWTR)
aabbcc
Your satellite tracking list
Your tracking list is empty




NASA's NSSDC Master Catalog

Two Line Element Set (TLE):
1  2412U 66077C   19050.53953784  .00000002  00000-0  00000+0 0  9995
2  2412  90.2144 249.4898 0013553 221.8934 138.0881  8.59071140644841
Source of the keplerian elements: AFSPC